THORAD AGENA D DEB, 42534

Orbit data source: Space-Track

THORAD AGENA D DEB, 42534 is space debris in SSO originally from a launch on Wed, 08 Apr 1970 UTC launched from the Air Force Western Test Range (AFWTR). Debris objects in space refer to the collection of defunct objects orbiting the Earth. Examples of debris include non-operational satellites, rocket bodies, and fragments generated from explosions, collisions, or faulty payload assembly.

Loading next visibility...
Identifier
42534, 1970-025SQ
Orbit
SSO
Country
Flag of USUS
Related business
Manufacturer
Unknown
Mission
Spacecraft
Bus & Motor
Unknown
Mass
Unknown
Launch date (UTC)
1970-04-08 (55 years ago)
Launch vehicle
Unknown
Launch site
Air Force Western Test Range (AFWTR)
Object type
Payload
Rocket body
Debris
Shape & HBR
Unknown
Radar Cross Section
Small (<0.1 m²)

Expand to show TLE details & history
Last TLE update: 2 weeks ago

TLE from 2 weeks ago
0 THORAD AGENA D DEB
1 42534U 70025SQ  25246.18533811 -.00000114  00000-0 -20240-3 0  9990
2 42534 101.7363 327.4792 0192549 331.9476  27.1349 12.95502941551160
Epoch: 2025-09-03T04:26Z
TLE epoch observation values (Epoch: 2025-09-03T04:26:53.212Z)
Latitude
-0.00009°
Longitude
-81.80835°
Altitude
1,151.76 km
Speed
7.339 km/s
True Right ascension
21h 49m 55s
True Declination
0° 00' 00"
Sunlit
Object was in full shadow at epoch
Visualization orbit readout
Latitude
Unknown
Longitude
Unknown
Altitude
Unknown
Speed
Unknown
Apparent Right ascension
Unknown
Apparent Declination
Unknown
Sunlit
N/A
Visualization observer readout
Local Sidereal Time
16:28:15
Azimuth
Unknown
Elevation
Unknown
Doppler factor
Unknown
Orbital elements
Apogee altitude
1,424.65 km
Perigee altitude
1,129.843 km
Semi-major axis
7,655.383 km
Eccentricity
0.01925
Inclination
101.7363°
RAAN
327.4792°
Arg. of periapsis
331.9476°
True anomaly
28.16318°
Mean anomaly
27.1349°
Eccentric anomaly
27.64682°
Mean motion
3.24036 °/min
Orbital period
111.1 mins
BSTAR
-0.0002024
Loading maneuver chart data...
Computing Atmospheric mass density...

Documentation

Showing up to 5 results
|